Location: Gülübeli Geçidi
(36.8411°N, 29.7411°E)
Time: 15:10:15
(UTC+00:00)

ADEOS - Pass Details

Date: 15 May 2026
Orbit: 789 x 792 km, 98.8° (Epoch: 10 June)

Event Time Altitude Azimuth Distance (km) Brightness Sun altitude
Exits shadow 18:44:24 22° 174° (S) 1,675 4.8 -18.0°
Maximum altitude 18:47:50 76° 257° (WSW) 819 3.6 -18.5°
Drops below altitude 10° 18:53:03 10° 343° (NNW) 2,363 6.9 -19.2°
Sets 18:55:23 0° 345° (NNW) 3,296 7.8 -19.6°
